Regional Weather Roundup
Issued by NWS

Home | Current Version | Previous Version | Graphics & Text | Print | Product List | Glossary On
Versions: 1 2 3 4 5 6 7 8 9 10 11 12 13 14 15 16 17 18 19 20 21 22 23 24 25 26 27 28 29 30 31 32 33 34 35 36 37 38 39 40 41 42 43 44 45 46 47 48 49 50
000
ASUS45 KSLC 190010
RWRUT

UTAH REGIONAL WEATHER ROUNDUP
NATIONAL WEATHER SERVICE SALT LAKE CITY UT
500 PM MST THU DEC 18 2014

UTZ001>011-023>025-190100-

NORTHERN UTAH

CITY           SKY/WX    TMP DP  RH WIND       PRES   REMARKS
BRIGHAM CITY   CLEAR     40  31  70 S5        30.16S
HILL AFB       PTCLDY    39  30  68 CALM      30.14S
LOGAN          CLOUDY    39  31  72 NW5       30.14R
OGDEN          MOCLDY    39  31  72 W3        30.14S
PROVO AIRPORT  MOCLDY    37  32  81 CALM      30.16
SALT LAKE CITY PTCLDY    41  29  62 N6        30.14R
VERNAL         CLOUDY    27  22  81 CALM      30.17R
WENDOVER       MOCLDY    36  27  69 CALM      30.15F
HEBER CITY     CLOUDY    34  30  86 SW3       30.13R
WEST JORDAN    PTCLDY    36  34  93 W3        30.15R

$$

UTZ012>022-026-027-190100-

SOUTHERN/CENTRAL UTAH

CITY           SKY/WX    TMP DP  RH WIND       PRES   REMARKS
BLANDING       MOCLDY    36  32  85 NE7       30.19R WCI  30
BRYCE CANYON   CLEAR     30  18  60 NW8       30.12R WCI  22
CEDAR CITY     CLEAR     40  25  55 CALM      30.12R
DELTA          CLEAR     42  27  55 W3        30.14S
MILFORD        CLEAR     43  27  53 SW3       30.12R
MOAB/CYNLANDS  CLOUDY    38  33  82 NW3       30.13R
PRICE          MOCLDY    34  25  69 CALM      30.12R
ST GEORGE      PTCLDY    52  36  54 SW8       30.16S
KANAB            N/A     43  32  65 S5        30.17R

$$

REGIONAL REPORTS     COLORADO/ARIZONA

CITY           SKY/WX    TMP DP  RH WIND       PRES   REMARKS
CRAIG, CO      PTCLDY    18  16  92 SW3       30.13R
GRAND JUNCTION CLOUDY    36  31  82 NW8       30.14R WCI  30
RIFLE          FLURRIES  35  29  78 W6        30.12R WCI  30
MONTROSE       CLOUDY    34  30  85 SW5       30.15R WCI  30
CORTEZ         CLOUDY    36  30  79 NE9       30.12R WCI  29
PAGE, AZ       CLEAR     45  32  60 CALM      30.12S
GRAND CANYON   PTCLDY    34  30  85 CALM      30.14R
KINGMAN        CLEAR     50  34  54 N6        30.14R
FLAGSTAFF      MOCLDY    32  27  81 E6        30.12S WCI  26

$$

REGIONAL REPORTS    NEVADA/IDAHO/WYOMING

CITY           SKY/WX    TMP DP  RH WIND       PRES   REMARKS
LAS VEGAS, NV  PTCLDY    54  38  54 CALM      30.12R
ELY            PTCLDY    35  24  64 W5        30.13S WCI  31
ELKO           MOCLDY    35  30  82 SW3       30.13R
POCATELLO, ID  MOCLDY    36  31  82 CALM      30.13R
BURLEY         PTCLDY    39  29  67 NE3       30.10S
EVANSTON, WY   PTCLDY    28  21  75 W8        30.11R WCI  20
ROCK SPRINGS   PTCLDY    27  18  69 NW8       30.09R WCI  19
KEMMERER       CLOUDY    28  23  80 W8        30.10R WCI  20

$$


USA.gov is the U.S. government's official web portal to all federal, state and local government web resources and services.